Weather in Unitsa

Russia / Republic of Karelia     62°35′48″N   34°27′42″E
temp.,
°C
wind,
m/s
gust,
m/s
humid.,
%
clouds,
%
prec.,
mm/h
press.,
hPa
HPBL,
m
3 march, wed
wed300:00−6wnw38910 0.0 1011195
03:00−6w311944 0.0 1010285
06:00−3wnw499482 0.0 1008519
09:00−3w5119191 0.0 1006594
12:00−2w4109294 0.0 1004453
15:00−1w5109297 0.7 1001809
18:00−2w3997100 0.2 997573
21:00−1wnw2997100 3.1 995638
4 march, thu
thu400:00−2nnw51096100 2.6 995740
03:00−7nnw4109298 3.1 998367
06:00−12nw249761 0.0 99882
09:00−12nw249636 0.0 1000126
12:00−7nw369424 0.0 1000380
15:00−5nw369061 0.0 1000733
18:00−8nnw2394100 0.1 100088
21:00−11wnw239592 0.1 100156
5 march, fri
fri500:00−11wnw249683 0.1 100289
03:00−9n499491 0.3 1003494
06:00−15n379560 0.1 1005188
09:00−17nnw289630 0.1 1007206
12:00−12nw259331 0.0 1009329
15:00−9wnw368965 0.2 1010737
18:00−12nw239370 0.0 101131
21:00−15wnw129650 0.0 101320
6 march, sat
sat600:00−16w119814 0.0 101320
03:00−16wsw119920 0.0 101420
06:00−16wsw239873 0.0 101349
09:00−14wsw269553 0.0 1012155
12:00−9sw259429 0.0 1010293
15:00−6ssw478725 0.0 1006682
18:00−8s4109098 0.0 1001647
21:00−7sse6129399 0.5 995896
7 march, sun
sun700:00−7sse61393100 0.8 988906
03:00−6se71493100 2.1 983772
06:00−6ese71494100 2.3 982782
09:00−9ssw3694100 3.7 984353
12:00−8ene3594100 0.2 988565
15:00−9ne61093100 0.8 992777
18:00−11nne51192100 0.5 996879
21:00−11nne61389100 0.9 1001783